Location: Az?znagar
(16.8373°N, 80.5091°E)
Time: 20:51:27
(UTC+00:00)

ATLAS 3B R/B - Visible Passes

Search period start: 28 June 2022 00:00
Search period end: 08 July 2022 00:00
Orbit: 976 x 1218 km, 63.8° (Epoch: 20 June)

Date Brightness Start Highest point End Pass type
(mag) Time Alt. Az. Time Alt. Az. Time Alt. Az.
28 Jun 2.6 23:39:52 10° SSW 23:46:14 81° WNW 23:52:46 10° NNE visible
29 Jun 3.3 22:52:58 10° S 22:59:04 51° ESE 23:05:20 10° NE visible
30 Jun 4.3 22:07:26 12° SSE 22:12:00 25° ESE 22:17:07 10° ENE visible
01 Jul 4.9 21:23:17 10° ESE 21:24:59 11° ESE 21:26:43 10° E visible
01 Jul 2.6 23:09:35 14° SW 23:14:59 66° WNW 23:21:29 10° NNE visible
02 Jul 2.8 22:24:23 28° S 22:27:48 64° ESE 22:34:14 10° NNE visible
03 Jul 3.8 21:39:08 28° SE 21:40:42 31° ESE 21:46:17 10° NE visible
03 Jul 3.6 23:26:26 12° WSW 23:31:09 27° WNW 23:36:35 10° N visible
04 Jul 4.7 20:53:50 15° ESE 20:53:50 15° ESE 20:57:03 10° ENE visible
04 Jul 2.8 22:41:07 33° WSW 22:43:45 53° WNW 22:50:08 10° NNE visible
05 Jul 2.4 21:55:45 69° S 21:56:31 79° ESE 22:03:03 10° NNE visible
05 Jul 4.5 23:46:23 10° WNW 23:47:39 11° NW 23:48:55 10° NW visible
06 Jul 3.6 21:10:20 37° E 21:10:20 37° E 21:15:22 10° NE visible
06 Jul 3.9 22:57:36 18° W 22:59:59 22° WNW 23:04:55 10° N visible
07 Jul 4.8 20:24:52 15° E 20:24:52 15° E 20:26:42 10° ENE visible
07 Jul 3.0 22:12:08 42° WNW 22:12:32 43° WNW 22:18:43 10° N visible
